[TLELIST] Archives

 

[list_settings.list_name] Current TLEs

August 1st 2013 PDT

HST 1 20580U 90037B 13212.45971161 .00001143 00000-0 68966-4 0 2932 2 20580 028.4708 342.5622 0003327 098.4503 314.6691 15.03804064 76367 ISS (ZARYA) 1 25544U 98067A 13213.24992757 .00005537 00000-0 10442-3 0 3027 2 25544 051.6492 245.0524 0003676 255.0509 195.7997 15.50138538841693 CXO 1 25867U 99040B 13215.53153696 -.00000152 00000-0 00000+0 0 9314 2 25867 075.7028 336.7968 8509551 277.0806 000.9205 00.37796921 10713 ____________________________________________________________________ These 2-Line ...Continue Reading

[list_settings.list_name] Current TLEs

July 31st 2013 PDT

HST 1 20580U 90037B 13210.74839705 .00001194 00000-0 72614-4 0 2929 2 20580 028.4711 353.7828 0003381 080.8787 049.4568 15.03799098 76111 ISS (ZARYA) 1 25544U 98067A 13212.42041569 .00006129 00000-0 11475-3 0 2970 2 25544 051.6493 249.1609 0003759 248.5680 250.1592 15.50130925841567 CXO 1 25867U 99040B 13212.88599629 -.00000391 00000-0 00000+0 0 9303 2 25867 075.6823 336.9659 8511994 277.1037 000.7496 00.37798756 10702 ____________________________________________________________________ These 2-Line ...Continue Reading

[list_settings.list_name] Current TLEs

July 30th 2013 PDT

HST 1 20580U 90037B 13210.74839705 .00001194 00000-0 72614-4 0 2929 2 20580 028.4711 353.7828 0003381 080.8787 049.4568 15.03799098 76111 ISS (ZARYA) 1 25544U 98067A 13211.50726947 .00006455 00000-0 12048-3 0 2900 2 25544 051.6494 253.6858 0003867 245.1037 194.4974 15.50120492841420 CXO 1 25867U 99040B 13212.88599629 -.00000391 00000-0 00000+0 0 9303 2 25867 075.6823 336.9659 8511994 277.1037 000.7496 00.37798756 10702 ____________________________________________________________________ These 2-Line ...Continue Reading

[list_settings.list_name] Current TLEs

July 29th 2013 PDT

HST 1 20580U 90037B 13209.47410604 .00001189 00000-0 72239-4 0 2916 2 20580 028.4711 002.1378 0003409 068.2494 349.8851 15.03796862 75917 ISS (ZARYA) 1 25544U 98067A 13210.48677639 .00006409 00000-0 11974-3 0 2837 2 25544 051.6494 258.7422 0003870 241.6586 259.4128 15.50106184841264 CXO 1 25867U 99040B 13212.88599629 -.00000391 00000-0 00000+0 0 9303 2 25867 075.6823 336.9659 8511994 277.1037 000.7496 00.37798756 10702 ____________________________________________________________________ These 2-Line ...Continue Reading

[list_settings.list_name] Current TLEs

July 28th 2013 PDT

HST 1 20580U 90037B 13207.89936182 .00001281 00000-0 78820-4 0 2908 2 20580 028.4712 012.4628 0003410 052.8889 103.3009 15.03793271 75682 ISS (ZARYA) 1 25544U 98067A 13209.39682870 .00010367 00000-0 18870-3 0 2760 2 25544 051.6494 264.1417 0003806 236.2061 298.5655 15.50100200841099 CXO 1 25867U 99040B 13210.24180944 -.00000590 00000-0 00000+0 0 9296 2 25867 075.6754 337.1012 8514124 277.1395 000.7555 00.37799333 10692 ____________________________________________________________________ These 2-Line ...Continue Reading

[list_settings.list_name] Current TLEs

July 27th 2013 PDT

HST 1 20580U 90037B 13207.89936182 .00001281 00000-0 78820-4 0 2908 2 20580 028.4712 012.4628 0003410 052.8889 103.3009 15.03793271 75682 ISS (ZARYA) 1 25544U 98067A 13208.47817385 .00005694 00000-0 10739-3 0 2706 2 25544 051.6506 268.6958 0003973 230.2599 214.7401 15.50077472840954 CXO 1 25867U 99040B 13210.24180944 -.00000590 00000-0 00000+0 0 9296 2 25867 075.6754 337.1012 8514124 277.1395 000.7555 00.37799333 10692 ____________________________________________________________________ These 2-Line ...Continue Reading

[list_settings.list_name] Current TLEs

July 26th 2013 PDT

HST 1 20580U 90037B 13206.89690853 .00001261 00000-0 77396-4 0 2892 2 20580 028.4712 019.0355 0003349 043.2530 075.3035 15.03790521 75536 ISS (ZARYA) 1 25544U 98067A 13207.38465318 .00017879 00000-0 31979-3 0 2628 2 25544 051.6510 274.1139 0003790 234.4423 224.3962 15.50063672840788 CXO 1 25867U 99040B 13207.59505856 -.00000570 00000-0 00000+0 0 9280 2 25867 075.6700 337.2191 8518684 277.1788 000.4443 00.37801571 10683 ____________________________________________________________________ These 2-Line ...Continue Reading

[list_settings.list_name] Current TLEs

July 25th 2013 PDT

HST 1 20580U 90037B 13205.83872610 .00001342 00000-0 83137-4 0 2887 2 20580 028.4712 025.9736 0003380 032.7838 105.8581 15.03787402 75375 ISS (ZARYA) 1 25544U 98067A 13206.41920132 .00006019 00000-0 11325-3 0 2561 2 25544 051.6501 278.8917 0004222 220.2958 247.6173 15.50028927840630 CXO 1 25867U 99040B 13207.59505856 -.00000570 00000-0 00000+0 0 9280 2 25867 075.6700 337.2191 8518684 277.1788 000.4443 00.37801571 10683 ____________________________________________________________________ These 2-Line ...Continue Reading

[list_settings.list_name] Current TLEs

July 24th 2013 PDT

HST 1 20580U 90037B 13204.77229883 .00001206 00000-0 73501-4 0 2879 2 20580 028.4712 032.9657 0003368 022.1207 091.8875 15.03786288 75218 ISS (ZARYA) 1 25544U 98067A 13205.52164819 .00008090 00000-0 14944-3 0 2509 2 25544 051.6504 283.3376 0004216 215.7052 280.5020 15.50025554840494 CXO 1 25867U 99040B 13204.94937503 -.00000390 00000-0 00000+0 0 9273 2 25867 075.6560 337.3675 8524656 277.1934 000.3590 00.37800639 10679 ____________________________________________________________________ These 2-Line ...Continue Reading

[list_settings.list_name] Current TLEs

July 23rd 2013 PDT

HST 1 20580U 90037B 13202.84935883 .00001269 00000-0 78012-4 0 2869 2 20580 028.4710 045.5744 0003389 003.1889 120.2226 15.03782010 74924 ISS (ZARYA) 1 25544U 98067A 13204.21522850 .00011490 00000-0 20886-3 0 2439 2 25544 051.6508 289.8078 0004348 213.7502 187.7929 15.50017069840298 CXO 1 25867U 99040B 13204.94937503 -.00000390 00000-0 00000+0 0 9273 2 25867 075.6560 337.3675 8524656 277.1934 000.3590 00.37800639 10679 ____________________________________________________________________ These 2-Line ...Continue Reading
  • This mailing list is a public mailing list - anyone may join or leave, at any time.
  • This mailing list is announce-only.

International Space Station (ISS) / Hubble Space Telescope (HST) / Chandra X-Ray Observatory Orbital Data via EMAIL

Privacy Policy:

Private list